Location: *
(47.7167°N, 1.7333°W)
Time: 16:10:16
(UTC+00:00)

FALCON 9 DEB - Pass Details

Date: 09 April 2020
Orbit: 428 x 442 km, 53.0° (Epoch: 03 June)

Event Time Altitude Azimuth Distance (km) Brightness Sun altitude
Rises 21:01:52 0° 258° (WSW) 2,429 7.5 -20.8°
Reaches altitude 10° 21:04:02 10° 264° (W) 1,560 6.5 -21.1°
Maximum altitude 21:07:28 50° 341° (NNW) 569 4.0 -21.5°
Enters shadow 21:08:17 40° 26° (NNE) 669 4.1 -21.6°
